Main page


Airports :

Alpine, Texas, United States

Alpine-Casparis Municipal Airport

latitude: 30-23-03N, longitude: 103-41-00W, elevation: 1376 m

Current weather observation

The report was made 29 minutes ago, at 19:55 UTC
Wind 8 kt from the West/Southwest with gusts up to 14 kt
Temperature 27°C
Humidity 32%
Pressure 1024 hPa
Visibility: 16.1 km
Clear sky

METAR: KE38 231955Z AUTO 25008G14KT 10SM CLR 27/09 A3023 RMK AO2 T02690092

Time: 15:24 (20:24 UTC)

TAF: missing

Weather observations and forecasts of more than 4000 airports (METAR and TAF reports).

The available stations are represented by yellow and red dots on the map.

Hover mouse over dot to see the name of the station.

Then click to see weather observations and forecasts.

To change the map : click on the green buttons with a black cross to zoom in, on the green button with a dash to zoom out, or on the green arrows for adjacent maps.